{"data":{"norad_id":67551,"epoch":"2026-09-18T22:18:07.743456Z","epoch_age_seconds":208010,"freshness":"STALE","line1":"1 67551U 26014V   26261.92925629  .00017743  00000+0  55033-3 0  9998","line2":"2 67551  97.2873 147.2555 0002198  85.6242 274.5252 15.33459844 38383","mean_motion":15.33459844,"eccentricity":0.0002198,"inclination_deg":97.2873,"raan_deg":147.2555,"arg_perigee_deg":85.6242,"mean_anomaly_deg":274.5252,"bstar":0.00055033,"rev_number":3838,"period_min":93.905295638116,"perigee_km":463.99477833915,"apogee_km":467.00324072894,"semimajor_km":6843.636009534,"source":"CELESTRAK","updated_at":"2026-09-20T09:00:43.571669Z"}}